This is the latest recevied weather packets stored in our database for station/object K9ZOG. If no packets are shown the sender has not sent any weather packets the latest 10 day(s).
| Time | Temp. | Humidity | Pressure | Rain* | Wind** | Luminosity | Snow |
|---|---|---|---|---|---|---|---|
| 1777814653 | 9.44° C | 62% | 1012.8 hPa | 0 mm | - | 78 W/m² | - |
| 1777814353 | 9.44° C | 62% | 1012.8 hPa | 0 mm | - | 54 W/m² | - |
| 1777814053 | 9.44° C | 62% | 1012.8 hPa | 0 mm | - | 48 W/m² | - |
| 1777813753 | 9.44° C | 61% | 1012.8 hPa | 0 mm | - | 75 W/m² | - |
| 1777813453 | 9.44° C | 60% | 1012.7 hPa | 0 mm | - | 100 W/m² | - |
| 1777813155 | 9.44° C | 60% | 1013 hPa | 0 mm | - | 114 W/m² | - |
| 1777812855 | 9.44° C | 61% | 1013 hPa | 0 mm | - | 142 W/m² | - |
| 1777812552 | 9.44° C | 62% | 1012.8 hPa | 0 mm | - | 98 W/m² | - |
| 1777812255 | 9.44° C | 62% | 1012.8 hPa | 0 mm | - | 91 W/m² | - |
| 1777811953 | 9.44° C | 62% | 1012.8 hPa | 0 mm | - | 78 W/m² | - |
| 1777811655 | 9.44° C | 61% | 1012.9 hPa | 0 mm | - | 65 W/m² | - |
| 1777811355 | 9.44° C | 61% | 1012.9 hPa | 0 mm | - | 54 W/m² | - |
| 1777811052 | 9.44° C | 61% | 1013 hPa | 0 mm | - | 39 W/m² | - |
| 1777810752 | 9.44° C | 60% | 1012.9 hPa | 0 mm | - | 35 W/m² | - |
| 1777810454 | 9.44° C | 59% | 1012.8 hPa | 0 mm | - | 40 W/m² | - |
| 1777810153 | 9.44° C | 58% | 1012.8 hPa | 0 mm | - | 47 W/m² | - |
| 1777809855 | 10° C | 58% | 1012.8 hPa | 0 mm | - | 38 W/m² | - |
| 1777809553 | 10° C | 57% | 1012.8 hPa | 0 mm | - | 37 W/m² | - |
| 1777809254 | 9.44° C | 57% | 1012.7 hPa | 0 mm | - | 32 W/m² | - |
| 1777808952 | 10° C | 57% | 1012.7 hPa | 0 mm | - | 19 W/m² | - |
| 1777808653 | 9.44° C | 57% | 1012.9 hPa | 0 mm | - | 18 W/m² | - |
| 1777808355 | 9.44° C | 56% | 1012.8 hPa | 0 mm | - | 16 W/m² | - |
| 1777808053 | 9.44° C | 57% | 1012.7 hPa | 0 mm | - | 19 W/m² | - |
| 1777807752 | 9.44° C | 57% | 1012.6 hPa | 0 mm | - | 31 W/m² | - |
| 1777807453 | 9.44° C | 58% | 1012.7 hPa | 0 mm | - | 25 W/m² | - |
* Rain latest hour (hover to see other rain measurements)
** Current wind speed in m/s (hover to see current wind gust speed)